Theta_e
307 307 306 307 306 306 305 304 301 295 296 299 296 297 299 297 298 300 298 299 303 304 305 306 306 307 307 308 309 309 310 310 311 311 313 313 315 316
298 297 297 298 298 300 301 302 302 299 294 296 298 299 296 298 298 298 298 296 299 301 302 302 303 304 305 305 305 307 307 308 309 309 310 311 312 313
292 292 292 293 292 292 293 294 295 296 292 294 294 297 295 295 295 296 296 295 297 298 300 301 301 302 302 302 302 303 304 305 306 306 307 308 309 310
289 289 289 291 289 290 291 291 292 292 291 288 290 290 291 292 293 293 293 295 295 296 298 298 298 299 299 299 299 300 300 301 301 302 303 305 305 307
287 287 288 288 286 286 286 288 288 289 288 286 286 288 289 290 290 290 290 291 292 293 295 295 296 295 296 297 298 297 296 296 297 298 299 300 302 303
286 286 286 286 285 285 286 286 286 286 286 285 285 285 286 287 287 286 286 288 287 289 291 292 294 294 295 295 295 294 293 294 294 295 296 297 298 299
284 285 285 284 286 287 286 285 285 285 284 283 283 283 283 284 283 285 284 285 285 288 288 288 289 289 290 292 291 291 292 293 293 293 293 294 296 296
283 283 283 283 284 287 287 287 287 284 283 283 283 282 283 284 284 284 284 283 282 287 286 285 287 287 288 289 291 292 292 292 291 292 292 293 294 295
282 284 284 284 285 284 286 286 286 287 287 285 282 283 283 284 284 284 284 284 283 285 285 283 284 283 286 286 290 291 291 291 290 290 291 292 295 295
284 284 284 284 284 284 284 284 284 284 285 285 284 284 285 286 286 285 283 283 283 284 283 280 282 281 284 284 288 289 288 288 289 289 291 294 296 297
284 284 284 283 285 287 284 283 283 284 287 288 288 289 288 288 287 284 281 280 279 280 279 280 279 279 278 280 279 284 285 285 287 288 291 290 293 292
284 284 285 284 286 287 284 284 283 283 284 284 284 284 285 284 286 284 282 278 277 276 277 278 278 273 275 270 273 276 277 282 286 289 291 290 289 285
283 281 282 286 287 287 287 285 284 285 284 282 282 282 283 283 283 282 281 279 276 276 279 276 275 274 272 271 271 270 277 278 284 288 290 290 289 286
280 281 283 286 287 286 286 287 287 285 282 281 281 280 281 281 282 281 280 278 278 277 277 274 274 275 273 268 267 271 276 277 283 283 284 287 288 287
282 283 286 286 286 284 285 287 283 281 281 280 279 280 281 281 281 280 271 270 270 270 272 272 273 275 272 270 270 270 273 275 278 279 279 279 280 281
283 283 284 283 283 283 282 283 282 281 280 279 279 280 281 280 279 277 268 268 265 264 269 269 270 272 269 270 270 269 272 271 274 275 276 275 276 277
281 278 276 276 276 278 280 280 280 279 279 280 279 279 279 278 278 268 266 264 265 267 265 266 268 270 272 272 268 270 271 272 273 273 273 271 272 274
271 268 269 270 270 271 272 273 274 276 278 278 277 276 276 274 274 268 265 263 264 263 263 264 267 269 269 271 275 269 270 271 272 273 273 271 270 272
259 259 263 266 267 267 268 269 269 271 274 276 274 274 273 273 272 271 270 268 266 266 265 268 269 268 266 266 268 276 270 270 270 270 271 270 270 271
254 255 259 262 264 265 265 265 266 268 270 271 271 271 271 271 271 272 272 270 270 268 268 268 268 269 267 267 264 268 275 269 269 269 268 270 272 274
252 254 255 259 261 262 264 264 265 266 267 266 267 268 269 269 270 271 272 273 272 270 269 269 269 271 269 268 265 266 269 275 272 268 268 268 267 267
252 252 255 256 258 261 262 263 263 264 264 264 264 265 267 268 268 269 270 270 271 271 269 269 269 268 268 269 266 266 267 268 273 274 273 271 266 264
252 252 254 254 255 255 258 260 261 262 262 262 262 262 264 265 267 268 268 269 269 269 268 267 267 267 267 268 267 266 265 266 267 268 267 272 273 273
Wind_Speed
2 2 2 2 2 3 3 3 6 10 9 7 4 2 4 4 6 6 7 12 17 21 22 23 25 25 25 26 28 29 30 30 31 31 31 31 30 30
4 5 4 4 4 4 3 4 3 7 10 2 7 7 5 5 7 8 9 12 14 17 21 22 24 26 28 28 28 29 30 31 32 32 32 33 32 32
5 5 5 5 4 4 4 4 4 5 11 10 6 8 8 8 9 7 8 8 9 15 20 23 24 25 26 28 30 30 30 31 32 32 32 32 33 32
5 5 5 3 4 4 3 5 5 6 8 17 11 10 12 12 12 13 10 8 9 14 21 25 25 27 27 29 31 30 29 29 30 31 32 33 33 33
4 5 5 4 4 3 3 5 7 7 9 10 12 8 8 8 11 10 9 10 7 13 21 22 24 28 28 29 30 30 30 29 30 29 29 31 33 33
4 4 4 4 5 5 6 5 6 8 8 9 11 12 9 9 9 10 12 9 11 10 15 19 20 21 25 28 28 28 28 30 31 31 30 30 31 32
5 4 4 4 7 7 5 5 6 6 8 10 10 12 12 10 11 10 12 13 12 11 10 6 6 11 13 19 19 24 28 31 31 31 31 32 30 30
5 4 5 5 7 11 12 14 12 8 10 8 9 10 12 11 11 9 11 12 13 4 11 14 10 11 10 9 21 28 31 31 32 32 31 32 32 35
4 6 6 5 8 7 11 15 11 15 16 12 13 10 14 12 12 14 12 11 13 12 12 16 6 11 9 10 23 27 29 31 31 31 31 32 34 35
4 4 4 5 6 8 8 9 9 8 9 8 9 12 13 12 10 10 13 15 12 9 6 14 10 11 10 9 23 24 24 25 27 28 28 26 34 25
4 5 4 5 10 15 11 10 10 9 8 15 19 22 21 23 19 10 9 10 13 11 4 7 5 11 6 9 5 15 21 26 26 23 12 19 20 27
3 5 8 8 16 17 10 10 12 10 9 9 7 11 13 13 18 8 7 10 10 9 1 8 10 3 7 3 4 4 9 21 24 16 8 23 20 11
5 5 4 11 15 18 19 8 8 12 11 9 8 7 7 8 5 3 4 7 8 8 10 5 5 5 3 5 4 3 8 12 9 2 17 17 22 19
5 5 6 15 19 20 16 13 16 13 7 7 7 7 7 6 6 6 6 8 6 9 7 5 5 4 3 3 4 5 9 11 7 10 10 19 26 26
5 11 18 19 19 14 18 16 8 4 6 7 8 7 5 7 8 5 5 6 6 5 2 3 6 6 2 3 4 4 6 7 9 9 9 10 9 8
9 6 11 14 16 14 8 7 3 3 5 7 7 8 7 5 7 3 3 4 3 4 3 3 4 4 3 2 2 3 5 4 6 7 9 9 9 8
9 4 5 5 6 7 7 5 4 4 5 5 6 7 7 6 7 2 2 3 1 3 4 4 5 3 2 3 2 3 4 4 6 5 7 7 7 6
3 3 5 5 6 6 7 7 7 9 7 7 5 6 6 7 7 3 2 1 2 3 2 3 3 3 2 2 8 2 3 2 3 5 5 5 4 5
3 3 3 4 6 6 7 7 8 7 9 7 6 6 6 6 6 5 3 2 2 2 2 2 2 2 3 2 3 11 2 2 1 3 4 4 2 2
1 2 3 4 4 6 6 7 7 7 6 7 6 6 6 6 6 6 5 3 2 2 2 1 1 2 1 2 1 2 9 2 2 2 2 2 4 8
2 3 2 4 4 3 5 6 6 7 7 6 6 6 7 7 7 6 6 6 4 2 2 2 2 4 1 1 3 2 3 9 3 2 2 2 2 1
2 2 3 4 3 4 5 5 5 6 6 6 6 6 6 6 6 7 6 6 5 3 2 2 3 3 2 2 1 1 1 3 7 9 8 5 2 2
3 3 3 3 3 3 3 4 4 5 4 5 6 6 6 7 7 7 6 6 5 3 2 2 2 2 2 2 1 1 1 1 2 1 3 13 8 5
Wind_Direction
30 349 338 323 295 273 269 277 296 302 297 290 287 302 296 282 266 278 277 277 276 287 290 294 293 290 291 291 289 288 289 288 286 284 281 279 279 274
30 17 6 355 347 338 318 303 270 288 290 12 301 310 299 299 292 289 288 283 287 285 293 296 296 296 296 294 292 290 288 287 286 284 283 283 279 277
26 21 2 359 348 340 339 329 315 304 288 296 302 301 304 300 304 294 295 294 288 291 289 296 295 298 299 299 296 293 290 286 284 283 282 281 281 278
22 16 355 346 346 339 322 313 307 306 299 298 306 310 310 310 303 303 300 288 290 291 293 295 296 295 296 298 298 296 294 290 285 282 279 278 277 277
15 358 337 339 329 322 323 323 316 310 305 300 302 304 304 309 308 302 300 294 289 289 290 291 289 291 291 288 289 293 295 295 292 287 284 279 274 274
1 344 336 339 332 324 322 306 314 311 305 302 303 309 312 316 308 312 310 307 303 297 289 284 285 286 290 294 292 289 292 290 290 289 286 280 275 273
353 348 339 330 325 328 319 312 309 306 306 305 303 307 310 317 313 309 297 305 303 291 299 297 299 298 294 293 286 285 286 290 291 290 287 283 278 276
352 357 348 344 337 334 329 322 316 311 303 296 295 294 298 302 302 301 299 302 309 297 326 302 293 291 285 282 283 291 296 297 295 294 290 285 278 273
5 356 347 339 334 318 320 318 312 304 304 300 293 294 296 299 298 294 292 295 298 305 300 295 303 295 294 290 291 290 292 298 298 296 295 289 279 272
346 328 314 313 314 315 302 303 292 284 279 277 277 289 288 295 301 305 305 296 288 288 271 290 309 296 303 294 288 302 305 303 301 299 297 302 282 263
327 303 295 294 293 306 307 296 294 291 282 301 295 297 308 306 300 304 300 298 303 310 287 290 317 305 290 293 301 312 316 310 301 296 298 47 75 91
299 293 297 305 315 313 306 304 305 313 310 301 300 295 292 288 295 304 325 310 306 311 297 329 314 322 309 278 289 308 316 313 310 284 178 111 93 81
322 301 269 294 313 313 308 302 292 308 315 307 293 290 285 285 285 283 290 296 295 281 315 338 309 297 260 309 299 318 325 325 309 119 125 112 114 115
303 297 292 296 312 312 309 293 306 321 307 302 296 294 294 297 298 292 284 287 266 270 305 307 277 296 292 301 303 332 334 344 10 71 80 84 86 91
296 291 314 313 310 307 297 288 299 292 302 301 302 298 293 299 294 279 291 283 274 264 239 295 295 305 290 291 299 328 343 350 8 61 63 61 68 81
298 304 309 318 308 298 292 280 255 257 290 295 298 301 299 291 292 302 286 306 306 312 293 300 325 324 319 305 319 322 357 22 351 43 70 61 57 56
333 320 321 329 332 337 333 313 301 284 280 286 296 304 301 305 304 315 278 302 266 304 318 314 309 286 330 326 3 3 6 36 16 31 64 73 47 50
354 349 334 333 333 335 330 325 322 320 316 303 294 302 307 307 305 306 273 276 285 293 305 298 313 328 344 359 60 360 22 39 28 35 38 70 57 36
38 338 321 337 334 327 324 321 317 315 313 318 328 315 313 306 308 304 295 266 283 275 269 284 318 339 347 344 330 38 45 16 38 46 45 50 81 104
45 324 318 318 319 321 319 318 316 316 326 327 324 324 321 314 313 314 308 289 286 291 302 301 343 344 334 291 292 335 38 69 58 70 92 55 55 62
313 325 296 302 300 299 311 313 316 317 329 328 329 327 327 325 319 320 319 313 294 274 290 302 338 327 307 356 28 3 349 52 80 105 105 83 70 61
279 274 288 284 283 301 314 316 319 324 331 329 330 328 327 325 325 324 327 328 319 311 317 342 342 341 348 342 87 95 53 3 36 95 88 98 141 116
261 256 278 269 271 279 295 307 309 311 323 324 322 324 326 326 328 323 324 324 328 320 326 318 334 345 4 7 65 86 76 60 20 54 58 29 48 70